Altoona, PA

5:16 PM EST on November 16, 2019 (GMT -0500)
Altoona-Blair County

Weather History for KAOO - September, 2019

Change the Weather History Date:

Tuesday, September 3, 2019

  Actual Average Record
Temperature  
Mean Temperature 69 °F 66 °F  
Max Temperature 80 °F 77 °F 97 °F (1953)
Min Temperature 57 °F 55 °F 43 °F (1958)
Degree Days  
Heating Degree Days 0 2  
Month to date heating degree days 0 6  
Since 1 July heating degree days 9 38  
Cooling Degree Days 4 3  
Month to date cooling degree days 11 9  
Year to date cooling degree days 656 488  
Growing Degree Days 18 (Base 50)    
Moisture  
Dew Point 59 °F    
Average Humidity 76    
Maximum Humidity 97    
Minimum Humidity 54    
Precipitation  
Precipitation 0.00 in 0.13 in 1.01 in (2003)
Month to date precipitation 0.55 0.35  
Year to date precipitation 30.24 24.28  
Sea Level Pressure  
Sea Level Pressure 30.06 in    
Wind  
Wind Speed 4 mph (SSW)    
Max Wind Speed 15 mph    
Max Gust Speed 21 mph    
Visibility 5 miles    
Events Fog    
T = Trace of Precipitation, MM = Missing Value Source: NWS Daily Summary

Daily Weather History Graph

Daily Weather History Graph

Search for Another Location

Airport or City:

Astronomy

Sep. 03, 2019 Rise Set
Actual Time 6:42 AM EDT 7:42 PM EDT
Civil Twilight 6:14 AM EDT 8:09 PM EDT
Nautical Twilight 5:41 AM EDT 8:42 PM EDT
Astronomical Twilight 5:06 AM EDT 9:17 PM EDT
Moon 11:33 AM EDT (9/3) 10:37 PM EDT (9/3)
Length of Visible Light 13h 55m
Length of Day
12h 59m
Waxing Crescent, 24% of the Moon is Illuminated
Sep 3
Waxing Crescent
Sep 5
First Quarter
Sep 14
Full
Sep 21
Last Quarter
Sep 28
New

Hourly Weather History & Observations

Time (EDT) Temp. Dew Point Humidity Pressure Visibility Wind Dir Wind Speed Gust Speed Precip Events Conditions
12:53 AM 62.1 °F 59.0 °F 90% 30.09 in 9.0 mi SSE 4.6 mph - N/A   Clear
1:53 AM 61.0 °F 59.0 °F 93% 30.08 in 4.0 mi South 3.5 mph - N/A   Clear
2:53 AM 62.1 °F 60.1 °F 93% 30.06 in 4.0 mi WNW 3.5 mph - N/A   Clear
3:00 AM 61.0 °F 59.0 °F 93% 30.09 in 1.5 mi WNW 3.5 mph - N/A   Clear
3:17 AM 60.1 °F 59.0 °F 96% 30.09 in 2.5 mi Calm Calm - N/A   Clear
3:21 AM 60.1 °F 57.9 °F 93% 30.08 in 0.8 mi Calm Calm - N/A   Clear
3:28 AM 59.0 °F 57.0 °F 93% 30.08 in 0.2 mi Calm Calm - N/A Fog Fog
3:53 AM 59.0 °F 57.0 °F 93% 30.05 in 0.8 mi SSW 3.5 mph - N/A   Clear
4:03 AM 59.0 °F 57.0 °F 93% 30.07 in 0.2 mi SW 3.5 mph - N/A Fog Fog
4:12 AM 57.9 °F 57.0 °F 97% 30.07 in 0.5 mi Calm Calm - N/A Fog Fog
4:22 AM 57.0 °F 55.9 °F 96% 30.07 in 0.2 mi Calm Calm - N/A Fog Fog
4:53 AM 59.0 °F 57.9 °F 96% 30.06 in 0.2 mi Calm Calm - N/A Fog Fog
5:53 AM 59.0 °F 57.0 °F 93% 30.07 in 0.2 mi Calm Calm - N/A Fog Fog
6:53 AM 59.0 °F 57.0 °F 93% 30.09 in 0.2 mi Calm Calm - N/A Fog Fog
7:53 AM 59.0 °F 57.9 °F 96% 30.11 in 0.2 mi Calm Calm - N/A Fog Fog
8:53 AM 62.1 °F 61.0 °F 96% 30.11 in 0.2 mi Calm Calm - N/A Fog Fog
9:12 AM 63.0 °F 62.1 °F 97% 30.13 in 1.0 mi Calm Calm - N/A   Overcast
9:22 AM 64.0 °F 62.1 °F 93% 30.13 in 2.5 mi Calm Calm - N/A   Overcast
9:32 AM 64.9 °F 62.1 °F 90% 30.13 in 4.0 mi Calm Calm - N/A   Mostly Cloudy
9:42 AM 66.0 °F 62.1 °F 87% 30.13 in 5.0 mi Calm Calm - N/A   Scattered Clouds
9:53 AM 66.9 °F 62.1 °F 84% 30.11 in 7.0 mi Calm Calm - N/A   Partly Cloudy
10:53 AM 72.0 °F 60.1 °F 66% 30.09 in 10.0 mi Calm Calm - N/A   Clear
11:53 AM 75.0 °F 57.9 °F 55% 30.08 in 10.0 mi Variable 4.6 mph - N/A   Clear
12:53 PM 75.9 °F 60.1 °F 58% 30.08 in 10.0 mi SW 4.6 mph - N/A   Partly Cloudy
1:53 PM 77.0 °F 61.0 °F 58% 30.06 in 10.0 mi SSW 5.8 mph - N/A   Partly Cloudy
2:53 PM 79.0 °F 61.0 °F 54% 30.04 in 10.0 mi SSW 9.2 mph - N/A   Partly Cloudy
3:53 PM 79.0 °F 61.0 °F 54% 30.03 in 10.0 mi SSW 9.2 mph - N/A   Partly Cloudy
4:53 PM 79.0 °F 62.1 °F 56% 30.01 in 10.0 mi SSW 9.2 mph - N/A   Partly Cloudy
5:53 PM 79.0 °F 61.0 °F 54% 29.98 in 10.0 mi South 10.4 mph - N/A   Clear
6:53 PM 77.0 °F 61.0 °F 58% 29.97 in 10.0 mi South 5.8 mph - N/A   Clear
7:53 PM 73.0 °F 59.0 °F 61% 29.98 in 10.0 mi SW 4.6 mph - N/A   Clear
8:53 PM 71.1 °F 60.1 °F 68% 29.99 in 10.0 mi SSW 5.8 mph - N/A   Clear
9:53 PM 73.0 °F 59.0 °F 61% 30.00 in 10.0 mi South 11.5 mph - N/A   Clear
10:53 PM 68.0 °F 60.1 °F 76% 29.99 in 10.0 mi South 4.6 mph - N/A   Clear
11:53 PM 64.9 °F 59.0 °F 81% 29.97 in 10.0 mi Calm Calm - N/A   Clear